El Paso, TX

11:21 AM MST on December 07, 2016 (GMT -0700)
El Paso International

Weather History for KELP - September, 2014

Change the Weather History Date:

Sunday, September 7, 2014

  Actual Average Record
Temperature  
Mean Temperature 70 °F 78 °F  
Max Temperature 74 °F 90 °F 100 °F (2000)
Min Temperature 66 °F 66 °F 53 °F (1988)
Degree Days  
Heating Degree Days 0 0  
Month to date heating degree days 0 0  
Since 1 July heating degree days 0 0  
Cooling Degree Days 5 13  
Month to date cooling degree days 101 96  
Year to date cooling degree days 2320 2025  
Growing Degree Days 20 (Base 50)    
Moisture  
Dew Point 61 °F    
Average Humidity 74    
Maximum Humidity 84    
Minimum Humidity 64    
Precipitation  
Precipitation 0.01 in 0.06 in 1.22 in (2008)
Month to date precipitation 0.47 0.37  
Year to date precipitation 3.60 6.69  
Snow  
Snow 0.00 in - - ()
Month to date snowfall 0.0  
Since 1 July snowfall 0.0  
Since 1 September snowfall 0.0  
Snow Depth 0.00 in    
Sea Level Pressure  
Sea Level Pressure 30.01 in    
Wind  
Wind Speed 7 mph (ENE)    
Max Wind Speed 15 mph    
Max Gust Speed 17 mph    
Visibility 10 miles    
Events Rain    
T = Trace of Precipitation, MM = Missing Value Source: NWS Daily Summary

Daily Weather History Graph

Daily Weather History Graph

Search for Another Location

Airport or City:

Trip Planner

Search our weather history database for the weather conditions in past years. The results will help you decide how hot, cold, wet, or windy it might be!

Date:

Astronomy

Sep. 07, 2014 Rise Set
Actual Time 6:44 AM MDT 7:21 PM MDT
Civil Twilight 6:20 AM MDT 7:46 PM MDT
Nautical Twilight 5:51 AM MDT 8:15 PM MDT
Astronomical Twilight 5:21 AM MDT 8:44 PM MDT
Moon 6:21 PM MDT 5:04 AM MDT
Length of Visible Light 13h 26m
Length of Day
12h 37m
Waxing Gibbous, 97% of the Moon is Illuminated
Sep 7
Waxing Gibbous
Sep 8
Full
Sep 15
Last Quarter
Sep 24
New
Oct 1
First Quarter

Hourly Weather History & Observations

Time (MDT) Temp. Dew Point Humidity Pressure Visibility Wind Dir Wind Speed Gust Speed Precip Events Conditions
12:51 AM 70.0 °F 57.9 °F 65% 30.00 in 10.0 mi ENE 6.9 mph - N/A   Overcast
1:51 AM 70.0 °F 57.9 °F 65% 29.98 in 10.0 mi East 8.1 mph - N/A   Overcast
2:51 AM 70.0 °F 57.9 °F 65% 29.97 in 10.0 mi ENE 9.2 mph - N/A   Overcast
3:51 AM 69.1 °F 59.0 °F 70% 29.96 in 10.0 mi ENE 8.1 mph - N/A   Overcast
4:51 AM 69.1 °F 59.0 °F 70% 29.96 in 10.0 mi NE 8.1 mph - N/A   Overcast
5:51 AM 69.1 °F 59.0 °F 70% 29.96 in 10.0 mi ENE 6.9 mph - N/A   Overcast
6:51 AM 66.9 °F 60.1 °F 79% 29.98 in 8.0 mi East 9.2 mph - 0.00 in Rain Light Rain
7:51 AM 66.0 °F 61.0 °F 84% 30.01 in 10.0 mi ENE 3.5 mph - 0.01 in   Overcast
7:58 AM 66.9 °F 61.0 °F 81% 30.18 in 9.0 mi NE 5.8 mph - N/A   Overcast
8:22 AM 66.0 °F 61.0 °F 84% 30.18 in 9.0 mi NE 4.6 mph - 0.00 in Rain Light Rain
8:51 AM 66.9 °F 61.0 °F 81% 30.02 in 10.0 mi NE 5.8 mph - 0.00 in   Overcast
9:02 AM 66.0 °F 61.0 °F 84% 30.19 in 5.0 mi NE 5.8 mph - 0.00 in Rain Light Rain
9:51 AM 66.9 °F 61.0 °F 81% 30.04 in 10.0 mi NE 12.7 mph - 0.00 in   Overcast
10:51 AM 68.0 °F 61.0 °F 78% 30.04 in 10.0 mi NNE 9.2 mph - N/A   Overcast
11:51 AM 69.1 °F 62.1 °F 78% 30.03 in 10.0 mi North 9.2 mph - N/A   Overcast
12:51 PM 70.0 °F 62.1 °F 76% 30.01 in 10.0 mi North 5.8 mph - N/A   Overcast
1:51 PM 70.0 °F 61.0 °F 73% 30.00 in 10.0 mi East 11.5 mph - N/A   Overcast
2:51 PM 69.8 °F 62.6 °F 78% 30.14 in 10.0 mi NE 9.2 mph - N/A   Overcast
3:51 PM 71.1 °F 62.1 °F 73% 29.94 in 10.0 mi ENE 5.8 mph - N/A   Overcast
4:51 PM 73.0 °F 61.0 °F 66% 29.92 in 10.0 mi East 9.2 mph - N/A   Overcast
5:51 PM 73.9 °F 61.0 °F 64% 29.91 in 10.0 mi ESE 6.9 mph - N/A   Mostly Cloudy
6:51 PM 73.9 °F 61.0 °F 64% 29.91 in 10.0 mi East 6.9 mph - N/A   Mostly Cloudy
7:51 PM 73.4 °F 62.6 °F 69% 30.10 in 10.0 mi SSE 9.2 mph - N/A   Mostly Cloudy
8:51 PM 71.6 °F 62.6 °F 73% 30.11 in 10.0 mi SSE 4.6 mph - N/A   Mostly Cloudy
9:51 PM 70.0 °F 63.0 °F 78% 29.96 in 10.0 mi Calm Calm - N/A   Scattered Clouds
10:51 PM 69.1 °F 63.0 °F 81% 29.97 in 10.0 mi East 3.5 mph - N/A   Scattered Clouds
11:51 PM 69.1 °F 64.0 °F 84% 29.97 in 10.0 mi Calm Calm - N/A   Mostly Cloudy